Location: Franzen
(48.6167°N, 15.3833°E)
Time: 13:03:37
(UTC+00:00)

FALCON 9 DEB - Pass Details

Date: 22 April 2021
Orbit: 368 x 386 km, 53.0° (Epoch: 16 May)

Event Time Altitude Azimuth Distance (km) Brightness Sun altitude
Rises 19:02:31 0° 214° (SW) 2,206 6.7 -10.0°
Reaches altitude 10° 19:04:42 10° 202° (SSW) 1,360 5.5 -10.3°
Maximum altitude 19:07:20 27° 142° (SE) 741 3.8 -10.7°
Enters shadow 19:09:28 14° 87° (E) 1,179 4.8 -11.0°
